{"data":{"norad_id":65735,"epoch":"2026-05-24T22:53:29.787072Z","epoch_age_seconds":82108,"freshness":"FRESH","line1":"1 65735U 25216B   26144.95381698  .00018128  00000+0  62240-3 0  9994","line2":"2 65735  53.1598 338.3926 0000986  89.2953 270.8160 15.30213986 38195","mean_motion":15.30213986,"eccentricity":9.86e-5,"inclination_deg":53.1598,"raan_deg":338.3926,"arg_perigee_deg":89.2953,"mean_anomaly_deg":270.816,"bstar":0.0006224,"rev_number":3819,"period_min":94.104485593167,"perigee_km":474.49757366581,"apogee_km":475.84904645896,"semimajor_km":6853.3103100624,"source":"CELESTRAK","updated_at":"2026-05-25T13:38:20.900122Z"}}